[[{"header":{"parameterUnit":"m.s-1","parameterCategory":1,"la1":30.2991,"la2":30.254,"lo1":-89.0895,"lo2":-89.0444,"dy":0.0017,"dx":0.0017,"nx":28,"ny":28,"refTime":"2026-02-10T09:00:00:Z","depth":0,"parameterNumber":2,"parameterNumberName":"U-component_of_WINDS"},"data":[0,0,0,0,0,0,0,0,0,0,0,0,0,0,0,0,0,0,0,0,0,0,0,0,0,0,0,0,0,0,0,0,0,0,0,0,0,0,0,0,0,0,0,0,0,0,0,0,0,0,0,0,0,0,0,0,0,0,-0.7618,-0.7618,0,-0.7643,-0.7643,-0.7644,-0.7655,-0.7654,-0.7654,-0.7654,-0.768,-0.7681,-0.7682,0,0,0,0,0,0,0,0,0,0,0,0,0,-0.7579,-0.758,-0.7618,-0.7618,-0.7618,-0.7643,-0.7643,-0.7644,-0.7655,-0.7654,-0.7654,-0.7654,-0.768,-0.7681,-0.7682,0,0,0,0,0,0,0,0,0,0,0,0,0,-0.7599,-0.758,-0.7617,-0.7627,-0.7628,-0.7643,-0.7644,-0.7644,-0.7655,-0.7654,-0.7654,-0.7654,-0.768,-0.7681,-0.7682,-0.769,0,0,-0.7685,-0.7686,0,0,0,0,0,0,0,0,-0.7598,-0.7601,-0.7625,-0.7626,-0.7627,-0.7646,-0.764,-0.7659,-0.7655,-0.7644,-0.7654,-0.7654,-0.7669,-0.7671,-0.7676,-0.7691,-0.7692,-0.7685,-0.7686,-0.7687,-0.7687,0,0,0,0,0,0,0,-0.7597,-0.76,-0.7628,-0.7625,-0.7627,-0.763,-0.7633,-0.7643,-0.7657,-0.7645,-0.7646,-0.7649,-0.7669,-0.7675,-0.7676,-0.7693,-0.7685,-0.7686,-0.7687,-0.7687,-0.7719,-0.7719,0,0,0,0,0,0,-0.7594,-0.7599,-0.7627,-0.7628,-0.7612,-0.7631,-0.7634,-0.764,-0.7657,-0.7659,-0.7649,-0.7649,-0.7673,-0.7675,-0.7677,-0.7689,-0.7687,-0.7688,-0.7688,-0.7719,-0.7719,-0.7719,0,0,0,0,0,0,-0.7593,-0.7596,-0.7626,-0.7614,-0.7618,-0.7631,-0.7638,-0.764,-0.7646,-0.7659,-0.7662,-0.7652,-0.7673,-0.7676,-0.7687,-0.769,-0.7688,-0.7689,-0.7718,-0.7719,-0.7719,-0.7712,0,0,0,0,0,0,-0.7592,-0.7596,-0.7599,-0.7614,-0.7618,-0.7635,-0.7638,-0.7641,-0.7647,-0.7648,-0.7663,-0.7665,-0.7673,-0.7686,-0.7688,-0.7692,-0.769,-0.7718,-0.7718,-0.7719,-0.7712,-0.7712,-0.7712,0,0,0,0,0,-0.759,-0.7595,-0.7599,-0.7602,-0.7622,-0.7635,-0.7638,-0.7647,-0.7648,-0.7651,-0.766,-0.7665,-0.769,-0.7687,-0.769,-0.7694,-0.7718,-0.7718,-0.7719,-0.7712,-0.7712,-0.7712,0,0,0,0,0,0,-0.7579,-0.7597,-0.7601,-0.7611,-0.7622,-0.7637,-0.7641,-0.7646,-0.7656,-0.7657,-0.7668,-0.7671,-0.7682,-0.7689,-0.7685,-0.7704,-0.7704,-0.7705,-0.7698,-0.7698,-0.7698,-0.7696,-0.7691,0,0,0,0,0,-0.7578,-0.7587,-0.7602,-0.761,-0.7615,-0.7627,-0.7633,-0.7639,-0.7651,-0.7655,-0.7665,-0.7676,-0.7686,-0.7693,-0.7703,-0.7714,-0.7718,-0.7718,-0.7718,-0.7718,-0.7718,-0.7726,-0.7727,-0.772,-0.772,-0.772,0,0,-0.7576,-0.7587,-0.7591,-0.7608,-0.7617,-0.7626,-0.7631,-0.764,-0.7647,-0.7656,-0.7668,-0.7676,-0.7689,-0.77,-0.7706,-0.7707,-0.7721,-0.7718,-0.7718,-0.7719,-0.7726,-0.7727,-0.7728,-0.772,-0.772,-0.772,0,0,-0.7576,-0.7585,-0.7592,-0.7602,-0.7615,-0.7624,-0.7626,-0.7641,-0.7647,-0.7659,-0.7666,-0.7675,-0.7693,-0.7702,-0.7709,-0.7716,-0.772,-0.7719,-0.7718,-0.7726,-0.7726,-0.7727,-0.7729,-0.773,-0.7719,-0.7719,-0.7719,0,-0.7571,-0.7585,-0.7595,-0.7605,-0.7613,-0.7622,-0.7631,-0.7639,-0.7655,-0.766,-0.7661,-0.7685,-0.7694,-0.7708,-0.771,-0.7715,-0.7719,-0.7716,-0.7725,-0.7726,-0.7726,-0.7729,-0.773,-0.7719,-0.7719,-0.7719,-0.7719,0,-0.7579,-0.7589,-0.7593,-0.7609,-0.7618,-0.7626,-0.7639,-0.7646,-0.7652,-0.7661,-0.7674,-0.7686,-0.77,-0.7704,-0.771,-0.772,-0.772,-0.7723,-0.7724,-0.7727,-0.773,-0.7731,-0.7719,-0.7719,-0.7719,-0.7719,0,0,-0.7571,-0.7594,-0.7596,-0.7604,-0.7621,-0.7629,-0.7639,-0.7653,-0.7659,-0.7671,-0.768,-0.7696,-0.7699,-0.7707,-0.7714,-0.7721,-0.7726,-0.7723,-0.7724,-0.7724,-0.7739,-0.7737,-0.7738,-0.773,-0.773,-0.7731,-0.7739,0,-0.7573,-0.7591,-0.7602,-0.7616,-0.7626,-0.7637,-0.7646,-0.7657,-0.7666,-0.7677,-0.7687,-0.7698,-0.7701,-0.7706,-0.7713,-0.7724,-0.773,-0.7724,-0.7739,-0.7739,-0.7735,-0.774,-0.7737,-0.7743,-0.774,-0.774,-0.774,0,-0.7578,-0.759,-0.7605,-0.7623,-0.7627,-0.7635,-0.765,-0.7659,-0.7673,-0.768,-0.769,-0.7698,-0.771,-0.771,-0.7728,-0.7723,-0.7731,-0.7737,-0.7738,-0.7739,-0.7739,-0.7741,-0.7746,-0.7747,-0.7742,-0.7742,-0.7742,0,-0.7571,-0.7592,-0.7604,-0.761,-0.7631,-0.7636,-0.7645,-0.7659,-0.7667,-0.768,-0.7686,-0.77,-0.7708,-0.7719,-0.7731,-0.773,-0.7747,-0.7749,-0.7753,-0.7753,-0.7756,-0.7755,-0.7761,-0.7761,-0.7761,-0.7761,-0.7761,0,-0.7573,-0.7582,-0.7601,-0.7608,-0.7619,-0.7632,-0.7643,-0.7653,-0.7666,-0.7676,-0.7686,-0.7695,-0.771,-0.7722,-0.7731,-0.7745,-0.7748,-0.7754,-0.7756,-0.7753,-0.7752,-0.7757,-0.7757,-0.7761,-0.7761,-0.7761,-0.7761,0,-0.7567,-0.758,-0.7594,-0.7613,-0.7618,-0.7625,-0.7642,-0.765,-0.766,-0.7673,-0.7677,-0.7693,-0.7707,-0.7721,-0.7739,-0.7746,-0.776,-0.7763,-0.7755,-0.7756,-0.776,-0.776,-0.7769,-0.7772,-0.7769,-0.7769,-0.7769,0,-0.7567,-0.7574,-0.7594,-0.7602,-0.7611,-0.7623,-0.7632,-0.7646,-0.7654,-0.7672,-0.7679,-0.7694,-0.7706,-0.7729,-0.7743,-0.7758,-0.7761,-0.7764,-0.7763,-0.776,-0.7762,-0.7761,-0.7763,-0.7763,-0.7763,-0.7763,-0.7763,0,-0.7566,-0.7572,-0.7585,-0.76,-0.761,-0.7623,-0.7636,-0.7641,-0.7658,-0.7668,-0.7683,-0.7693,-0.7713,-0.7728,-0.7745,-0.7755,-0.7762,-0.7764,-0.7766,-0.7762,-0.7757,-0.776,-0.7754,-0.7763,-0.7763,-0.7763,-0.7763,-0.7763,-0.7563,-0.757,-0.7586,-0.76,-0.7612,-0.7624,-0.7633,-0.7645,-0.7658,-0.7675,-0.7683,-0.7698,-0.7714,-0.7738,-0.7748,-0.7761,-0.7762,-0.7765,-0.7766,-0.7766,-0.7766,-0.7756,-0.7764,-0.7764,-0.7764,-0.7764,-0.7764,0,-0.7562,-0.7574,-0.7586,-0.7605,-0.7616,-0.7623,-0.7638,-0.7647,-0.766,-0.7675,-0.7688,-0.7706,-0.7721,-0.7737,-0.7754,-0.7761,-0.7765,-0.7765,-0.7764,-0.7767,-0.7763,-0.776,-0.7761,-0.7761,-0.7761,-0.7761,-0.7761,-0.7761,-0.7564,-0.7577,-0.7586,-0.7606,-0.7617,-0.7632,-0.7641,-0.7653,-0.7664,-0.7684,-0.7697,-0.7708,-0.7723,-0.7741,-0.7756,-0.776,-0.7766,-0.7765,-0.7771,-0.7767,-0.7767,-0.7767,-0.7764,-0.7766,-0.7766,-0.7773,-0.7773,-0.7773]},{"header":{"parameterUnit":"m.s-1","parameterCategory":1,"la1":30.2991,"la2":30.254,"lo1":-89.0895,"lo2":-89.0444,"dy":0.0017,"dx":0.0017,"nx":28,"ny":28,"refTime":"2026-02-10T09:00:00:Z","depth":0,"parameterNumber":3,"parameterNumberName":"V-component_of_WINDS"},"data":[0,0,0,0,0,0,0,0,0,0,0,0,0,0,0,0,0,0,0,0,0,0,0,0,0,0,0,0,0,0,0,0,0,0,0,0,0,0,0,0,0,0,0,0,0,0,0,0,0,0,0,0,0,0,0,0,0,0,1.878,1.878,0,1.8726,1.8725,1.8724,1.8694,1.8694,1.8694,1.8693,1.8633,1.8632,1.863,0,0,0,0,0,0,0,0,0,0,0,0,0,1.8855,1.8853,1.878,1.878,1.8779,1.8726,1.8725,1.8724,1.8694,1.8694,1.8693,1.8693,1.8634,1.8632,1.863,0,0,0,0,0,0,0,0,0,0,0,0,0,1.8813,1.8853,1.8781,1.8758,1.8755,1.8726,1.8725,1.8724,1.8694,1.8694,1.8693,1.8693,1.8634,1.8632,1.863,1.8618,0,0,1.8623,1.8622,0,0,0,0,0,0,0,0,1.8816,1.8811,1.8762,1.8759,1.8756,1.8716,1.8729,1.8688,1.8694,1.8717,1.8693,1.8693,1.8661,1.8656,1.8646,1.8615,1.8613,1.8622,1.8621,1.862,1.8619,0,0,0,0,0,0,0,1.8819,1.8813,1.8759,1.8761,1.8758,1.8749,1.8743,1.8721,1.869,1.8715,1.8712,1.8707,1.8659,1.8648,1.8644,1.8612,1.8623,1.8621,1.8619,1.8618,1.8568,1.8568,0,0,0,0,0,0,1.8826,1.8815,1.876,1.8757,1.8786,1.8747,1.8741,1.8729,1.869,1.8684,1.8707,1.8705,1.8652,1.8647,1.8642,1.8626,1.862,1.8618,1.8617,1.8568,1.8568,1.8568,0,0,0,0,0,0,1.8827,1.8821,1.8763,1.8786,1.8777,1.8746,1.8734,1.8728,1.8717,1.8684,1.8678,1.8702,1.8652,1.8645,1.8624,1.8623,1.8617,1.8615,1.8568,1.8568,1.8568,1.8593,0,0,0,0,0,0,1.883,1.8822,1.8818,1.8786,1.8776,1.8747,1.8734,1.8727,1.8714,1.8712,1.8678,1.8672,1.8651,1.8628,1.8622,1.862,1.8613,1.8568,1.8568,1.8568,1.8592,1.8594,1.8595,0,0,0,0,0,1.8832,1.8826,1.8818,1.8812,1.8771,1.8747,1.8742,1.8719,1.8714,1.8709,1.8688,1.8673,1.8624,1.8626,1.8619,1.8616,1.8568,1.8568,1.8568,1.8591,1.8594,1.8595,0,0,0,0,0,0,1.8858,1.8822,1.8812,1.8796,1.8775,1.8742,1.8735,1.8722,1.8701,1.87,1.8672,1.8664,1.8646,1.8629,1.8631,1.8603,1.8594,1.8593,1.8615,1.8616,1.8618,1.8622,1.8611,0,0,0,0,0,1.8862,1.8847,1.8815,1.8804,1.8794,1.8767,1.8755,1.874,1.8717,1.8707,1.8684,1.8661,1.8641,1.8627,1.8607,1.859,1.8581,1.8584,1.8586,1.8587,1.8586,1.8576,1.8576,1.8568,1.8568,1.8568,0,0,1.8869,1.8848,1.884,1.8808,1.8791,1.8774,1.8759,1.8743,1.873,1.8704,1.8684,1.8666,1.8638,1.8619,1.861,1.8604,1.8587,1.8587,1.8589,1.8587,1.8576,1.8577,1.8577,1.8569,1.8569,1.8568,0,0,1.8875,1.8857,1.8846,1.8828,1.8802,1.8784,1.8781,1.8751,1.8738,1.8717,1.8698,1.8681,1.8647,1.8628,1.8613,1.8612,1.8597,1.8606,1.8614,1.8604,1.8605,1.8605,1.8604,1.8604,1.8605,1.8605,1.8605,0,1.8887,1.8863,1.8841,1.8826,1.8812,1.879,1.8777,1.8761,1.8729,1.8719,1.8715,1.8671,1.865,1.8626,1.8626,1.8616,1.8611,1.861,1.8607,1.8607,1.8607,1.8606,1.8606,1.8607,1.8606,1.8606,1.8606,0,1.8879,1.8863,1.8857,1.8828,1.8813,1.8799,1.8774,1.8762,1.8748,1.873,1.8709,1.8684,1.8657,1.8651,1.8636,1.8625,1.8622,1.8613,1.8603,1.8609,1.8608,1.8607,1.8608,1.8608,1.8607,1.8607,0,0,1.8899,1.8858,1.8856,1.8843,1.8812,1.8799,1.8783,1.8759,1.8749,1.8727,1.8713,1.8685,1.8676,1.866,1.8643,1.8634,1.8634,1.8625,1.8624,1.8627,1.8619,1.8626,1.8626,1.8624,1.8624,1.8624,1.8621,0,1.8899,1.8873,1.8852,1.8833,1.8817,1.8795,1.8782,1.8761,1.8744,1.8727,1.8707,1.8687,1.8677,1.8667,1.8658,1.8636,1.8632,1.8636,1.861,1.8609,1.8617,1.8625,1.8633,1.8632,1.862,1.862,1.862,0,1.8896,1.8877,1.8857,1.8828,1.882,1.8809,1.8785,1.877,1.8745,1.8733,1.8716,1.8698,1.868,1.8673,1.8647,1.8651,1.8638,1.8626,1.8625,1.8622,1.8615,1.8621,1.8631,1.863,1.8619,1.8619,1.8619,0,1.8912,1.8881,1.8865,1.8854,1.882,1.8812,1.8798,1.8773,1.876,1.8739,1.8729,1.8706,1.8693,1.8674,1.8651,1.8648,1.8627,1.8618,1.8615,1.8616,1.8611,1.8612,1.8618,1.8604,1.8604,1.8604,1.8604,0,1.8915,1.8903,1.8872,1.8861,1.8847,1.8823,1.8809,1.8792,1.8771,1.8756,1.8736,1.8722,1.8692,1.8674,1.8656,1.8636,1.8631,1.8619,1.8615,1.8621,1.8623,1.8612,1.8612,1.8604,1.8604,1.8604,1.8604,0,1.893,1.8909,1.8889,1.8859,1.8852,1.8842,1.8816,1.8804,1.8786,1.8768,1.8762,1.8733,1.8711,1.8686,1.8656,1.8643,1.8625,1.8618,1.8634,1.8631,1.8629,1.863,1.8629,1.8628,1.8616,1.8616,1.8616,0,1.8933,1.8924,1.8893,1.8883,1.8869,1.8852,1.8839,1.8815,1.8802,1.8773,1.8765,1.8742,1.8722,1.8688,1.8663,1.864,1.8632,1.8633,1.8628,1.8635,1.8631,1.8632,1.863,1.8634,1.8635,1.8635,1.8635,0,1.8941,1.8931,1.8913,1.8892,1.8877,1.8859,1.884,1.8832,1.8804,1.879,1.8768,1.8753,1.8722,1.8699,1.8673,1.8656,1.864,1.8637,1.8635,1.8641,1.8651,1.8645,1.8637,1.8637,1.8637,1.8637,1.8636,1.8636,1.8949,1.894,1.8917,1.8898,1.8882,1.8864,1.8852,1.8833,1.8815,1.879,1.8776,1.8754,1.8729,1.8693,1.8676,1.8658,1.8653,1.865,1.8649,1.8649,1.865,1.8654,1.8653,1.8653,1.8653,1.8653,1.8653,0,1.8955,1.894,1.8923,1.8897,1.8882,1.8871,1.8849,1.8837,1.8818,1.8797,1.8779,1.8753,1.8731,1.8705,1.8681,1.8671,1.8663,1.8665,1.8665,1.8662,1.8657,1.8661,1.8672,1.8672,1.8672,1.8672,1.8672,1.8672,1.8957,1.894,1.8928,1.8902,1.8886,1.8866,1.8854,1.8838,1.8821,1.8794,1.8776,1.876,1.8736,1.871,1.8689,1.8682,1.8673,1.8677,1.8668,1.8664,1.8662,1.866,1.8664,1.8676,1.8676,1.8674,1.8674,1.8674]}]]